Peoria, IL

9:47 PM CST on November 19, 2019 (GMT -0600)
Greater Peoria Regional

Weather History for KPIA - September, 2019

Change the Weather History Date:

Sunday, September 1, 2019

  Actual Average Record
Temperature  
Mean Temperature 67 °F 72 °F  
Max Temperature 72 °F 82 °F 101 °F (1913)
Min Temperature 62 °F 61 °F 44 °F (1967)
Degree Days  
Heating Degree Days 0 0  
Month to date heating degree days 0 0  
Since 1 July heating degree days 0 6  
Cooling Degree Days 2 7  
Month to date cooling degree days 2 7  
Year to date cooling degree days 984 914  
Growing Degree Days 17 (Base 50)    
Moisture  
Dew Point 63 °F    
Average Humidity 88    
Maximum Humidity 94    
Minimum Humidity 78    
Precipitation  
Precipitation 0.62 in 0.12 in 3.27 in (1926)
Month to date precipitation 0.62 0.12  
Year to date precipitation 34.14 25.07  
Snow  
Snow 0.00 in 0.00 in 0.00 in ()
Month to date snowfall 0.0 0.0  
Since 1 July snowfall 0.0 0.0  
Since 1 September snowfall 0.0 0.0  
Snow Depth 0.00 in    
Sea Level Pressure  
Sea Level Pressure 30.11 in    
Wind  
Wind Speed 5 mph ()    
Max Wind Speed 12 mph    
Max Gust Speed 17 mph    
Visibility 7.8 miles    
Events Fog , Rain , Thunderstorm    
T = Trace of Precipitation, MM = Missing Value Source: Averaged Metar Reports

Daily Weather History Graph

Daily Weather History Graph

Search for Another Location

Airport or City:

Astronomy

Sep. 01, 2019 Rise Set
Actual Time 6:25 AM CDT 7:31 PM CDT
Civil Twilight 5:57 AM CDT 7:59 PM CDT
Nautical Twilight 5:23 AM CDT 8:32 PM CDT
Astronomical Twilight 4:48 AM CDT 9:07 PM CDT
Moon 8:56 AM CDT (9/1) 9:17 PM CDT (9/1)
Length of Visible Light 14h 01m
Length of Day
13h 05m
Waxing Crescent, 8% of the Moon is Illuminated
Sep 1
Waxing Crescent
Sep 5
First Quarter
Sep 13
Full
Sep 21
Last Quarter
Sep 28
New

Hourly Weather History & Observations

Time (CDT) Temp. Dew Point Humidity Pressure Visibility Wind Dir Wind Speed Gust Speed Precip Events Conditions
12:54 AM 64.0 °F 61.0 °F 90% 30.15 in 10.0 mi NE 6.9 mph - 0.00 in Rain Light Rain
1:54 AM 64.9 °F 61.0 °F 87% 30.13 in 10.0 mi ENE 9.2 mph - 0.00 in   Overcast
2:29 AM 64.9 °F 62.1 °F 90% 30.13 in 10.0 mi ENE 8.1 mph - N/A   Overcast
2:54 AM 64.9 °F 62.1 °F 90% 30.12 in 10.0 mi ENE 8.1 mph - N/A   Overcast
3:54 AM 64.9 °F 62.1 °F 90% 30.11 in 10.0 mi ENE 5.8 mph - 0.00 in   Overcast
4:25 AM 64.9 °F 62.1 °F 90% 30.12 in 10.0 mi East 5.8 mph - N/A Thunderstorm Overcast
4:37 AM 64.9 °F 62.1 °F 90% 30.11 in 10.0 mi ENE 5.8 mph - N/A Thunderstorm Overcast
4:54 AM 64.9 °F 62.1 °F 90% 30.10 in 10.0 mi East 8.1 mph - N/A Thunderstorm Overcast
5:01 AM 64.9 °F 62.1 °F 90% 30.10 in 10.0 mi East 9.2 mph - N/A Thunderstorm Thunderstorm
5:10 AM 64.9 °F 62.1 °F 90% 30.11 in 10.0 mi ENE 8.1 mph - N/A Thunderstorm Overcast
5:18 AM 64.9 °F 62.1 °F 90% 30.11 in 10.0 mi East 9.2 mph - N/A   Overcast
5:54 AM 64.9 °F 62.1 °F 90% 30.10 in 10.0 mi East 9.2 mph - N/A   Overcast
6:32 AM 64.9 °F 62.1 °F 90% 30.11 in 10.0 mi East 5.8 mph - N/A   Overcast
6:54 AM 64.9 °F 62.1 °F 90% 30.11 in 10.0 mi ENE 4.6 mph - N/A   Overcast
7:02 AM 64.9 °F 62.1 °F 90% 30.12 in 10.0 mi East 5.8 mph - N/A Thunderstorm Overcast
7:17 AM 66.0 °F 63.0 °F 90% 30.13 in 10.0 mi Calm Calm - 0.00 in Rain Light Rain
7:32 AM 64.9 °F 63.0 °F 93% 30.13 in 2.5 mi Calm Calm - 0.00 in Rain , Thunderstorm Heavy Rain
7:38 AM 64.9 °F 62.1 °F 90% 30.13 in 1.2 mi ENE 5.8 mph - 0.04 in Rain , Thunderstorm Heavy Rain
7:45 AM 64.9 °F 62.1 °F 90% 30.13 in 0.5 mi East 9.2 mph - 0.14 in Fog , Rain , Thunderstorm Heavy Rain
7:52 AM 64.4 °F 62.6 °F 94% 30.13 in 0.8 mi ESE 6.9 mph - 0.40 in Rain Heavy Rain
7:54 AM 64.9 °F 63.0 °F 93% 30.12 in 0.8 mi ESE 6.9 mph - 0.44 in Rain , Thunderstorm Heavy Thunderstorms and Rain
8:02 AM 64.9 °F 63.0 °F 93% 30.12 in 1.0 mi ENE 6.9 mph - 0.13 in Rain , Thunderstorm Heavy Thunderstorms and Rain
8:07 AM 64.9 °F 63.0 °F 93% 30.12 in 2.0 mi ENE 6.9 mph - 0.16 in Rain , Thunderstorm Thunderstorms and Rain
8:12 AM 64.9 °F 63.0 °F 93% 30.12 in 3.0 mi NE 5.8 mph - 0.16 in Rain Light Rain
8:25 AM 64.9 °F 63.0 °F 93% 30.13 in 5.0 mi NE 3.5 mph - 0.17 in Rain Light Rain
8:54 AM 64.9 °F 63.0 °F 93% 30.12 in 5.0 mi Calm Calm - 0.18 in   Overcast
9:07 AM 66.0 °F 63.0 °F 90% 30.12 in 7.0 mi NE 3.5 mph - N/A   Overcast
9:54 AM 66.9 °F 64.0 °F 90% 30.12 in 9.0 mi Calm Calm - N/A   Overcast
10:54 AM 69.1 °F 64.0 °F 84% 30.13 in 10.0 mi WSW 3.5 mph - N/A   Overcast
11:23 AM 69.1 °F 64.9 °F 87% 30.13 in 8.0 mi NW 4.6 mph - N/A   Overcast
11:34 AM 70.0 °F 64.9 °F 84% 30.13 in 9.0 mi West 4.6 mph - N/A   Overcast
11:54 AM 69.1 °F 64.0 °F 84% 30.12 in 9.0 mi NW 4.6 mph - N/A   Overcast
12:54 PM 70.0 °F 64.9 °F 84% 30.12 in 9.0 mi Variable 5.8 mph - N/A   Overcast
1:39 PM 70.0 °F 64.9 °F 84% 30.11 in 10.0 mi NNW 3.5 mph - N/A   Overcast
1:54 PM 70.0 °F 64.9 °F 84% 30.10 in 10.0 mi Calm Calm - N/A   Overcast
2:54 PM 71.1 °F 64.9 °F 81% 30.09 in 10.0 mi NNW 4.6 mph - N/A   Overcast
3:01 PM 72.0 °F 64.9 °F 78% 30.10 in 10.0 mi Calm Calm - N/A   Overcast
3:54 PM 71.1 °F 64.9 °F 81% 30.09 in 10.0 mi NW 3.5 mph - N/A   Overcast
4:54 PM 71.1 °F 64.0 °F 78% 30.08 in 10.0 mi Calm Calm - N/A   Overcast
5:54 PM 71.1 °F 64.0 °F 78% 30.08 in 10.0 mi Calm Calm - N/A   Overcast
6:54 PM 71.1 °F 64.0 °F 78% 30.07 in 10.0 mi Calm Calm - N/A   Overcast
7:54 PM 70.0 °F 64.9 °F 84% 30.07 in 10.0 mi Calm Calm - N/A   Overcast
8:24 PM 69.1 °F 64.0 °F 84% 30.08 in 10.0 mi Calm Calm - N/A   Scattered Clouds
8:54 PM 66.0 °F 64.0 °F 93% 30.09 in 8.0 mi Calm Calm - N/A   Clear
9:54 PM 64.9 °F 63.0 °F 93% 30.09 in 10.0 mi Calm Calm - N/A   Clear
10:54 PM 64.0 °F 62.1 °F 93% 30.10 in 3.0 mi Calm Calm - N/A   Clear
11:54 PM 63.0 °F 61.0 °F 93% 30.10 in 4.0 mi Calm Calm - N/A   Clear